Gainesville, GA

9:07 AM EDT on March 23, 2017 (GMT -0400)
Gilmer Memorial

Weather History for KGVL - November, 2011

Change the Weather History Date:

Friday, November 4, 2011

  Actual Average Record
Temperature  
Mean Temperature 54 °F 56 °F  
Max Temperature 66 °F 66 °F 83 °F (1946)
Min Temperature 42 °F 47 °F 22 °F (1937)
Degree Days  
Heating Degree Days 11 9  
Month to date heating degree days 35  
Since 1 July heating degree days 193  
Growing Degree Days 4 (Base 50)    
Moisture  
Dew Point 40 °F    
Average Humidity 69    
Maximum Humidity 86    
Minimum Humidity 42    
Precipitation  
Precipitation 0.00 in 0.11 in 1.14 in (1968)
Month to date precipitation 0.42  
Year to date precipitation 45.43  
Sea Level Pressure  
Sea Level Pressure 29.92 in    
Wind  
Wind Speed 13 mph (NW)    
Max Wind Speed 18 mph    
Max Gust Speed 26 mph    
Visibility 10 miles    
Events      
T = Trace of Precipitation, MM = Missing Value Source: NWS Daily Summary

Daily Weather History Graph

Daily Weather History Graph

Search for Another Location

Airport or City:

Trip Planner

Search our weather history database for the weather conditions in past years. The results will help you decide how hot, cold, wet, or windy it might be!

Date:

Astronomy

Nov. 04, 2011 Rise Set
Actual Time 7:57 AM EDT 6:39 PM EDT
Civil Twilight 7:31 AM EDT 7:05 PM EDT
Nautical Twilight 7:01 AM EDT 7:35 PM EDT
Astronomical Twilight 6:32 AM EDT 8:04 PM EDT
Moon 3:17 PM EDT (11/4) 2:23 AM EDT (11/4)
Length of Visible Light 11h 34m
Length of Day
10h 41m
Waxing Gibbous, 69% of the Moon is Illuminated
Nov 4
Waxing Gibbous
Nov 10
Full
Nov 18
Last Quarter
Nov 25
New
Dec 2
First Quarter

Hourly Weather History & Observations

Time (EDT) Temp. Windchill Dew Point Humidity Pressure Visibility Wind Dir Wind Speed Gust Speed Precip Events Conditions
12:53 AM 46.0 °F 39.9 °F 42.1 °F 86% 29.86 in 10.0 mi West 13.8 mph - N/A   Overcast
1:53 AM 45.0 °F 38.2 °F 39.9 °F 82% 29.84 in 10.0 mi West 15.0 mph 24.2 mph N/A   Overcast
2:53 AM 44.1 °F 37.4 °F 39.0 °F 82% 29.85 in 10.0 mi WNW 13.8 mph 21.9 mph N/A   Overcast
3:02 AM 44.6 °F 37.8 °F 39.2 °F 81% 29.86 in 10.0 mi WNW 15.0 mph 23.0 mph N/A   Overcast
3:11 AM 44.6 °F 38.1 °F 39.2 °F 81% 29.86 in 10.0 mi WNW 13.8 mph 26.5 mph N/A   Overcast
3:22 AM 44.6 °F 37.8 °F 39.2 °F 81% 29.86 in 10.0 mi WNW 15.0 mph 25.3 mph N/A   Overcast
4:23 AM 42.8 °F 35.8 °F 37.4 °F 81% 29.85 in 10.0 mi WNW 13.8 mph 19.6 mph N/A   Scattered Clouds
4:48 AM 42.8 °F 34.8 °F 37.4 °F 81% 29.84 in 10.0 mi WNW 17.3 mph 21.9 mph N/A   Mostly Cloudy
4:53 AM 44.1 °F 37.7 °F 37.9 °F 79% 29.83 in 10.0 mi NW 12.7 mph 21.9 mph N/A   Mostly Cloudy
5:30 AM 42.8 °F 34.5 °F 37.4 °F 81% 29.83 in 10.0 mi WNW 18.4 mph 25.3 mph N/A   Scattered Clouds
5:53 AM 43.0 °F 35.4 °F 37.0 °F 80% 29.83 in 10.0 mi WNW 16.1 mph 24.2 mph N/A   Partly Cloudy
6:53 AM 43.0 °F 35.7 °F 37.9 °F 82% 29.85 in 10.0 mi WNW 15.0 mph 23.0 mph N/A   Scattered Clouds
7:53 AM 44.1 °F 37.7 °F 37.9 °F 79% 29.86 in 10.0 mi NW 12.7 mph 20.7 mph N/A   Overcast
8:53 AM 45.0 °F 38.9 °F 39.0 °F 80% 29.89 in 10.0 mi WNW 12.7 mph - N/A   Clear
9:53 AM 48.0 °F - 39.9 °F 74% 29.91 in 10.0 mi WNW 11.5 mph - N/A   Clear
10:53 AM 53.1 °F - 42.1 °F 66% 29.92 in 10.0 mi NNW 12.7 mph 18.4 mph N/A   Clear
11:53 AM 57.0 °F - 42.1 °F 57% 29.95 in 10.0 mi NW 9.2 mph - N/A   Clear
12:53 PM 60.1 °F - 42.1 °F 51% 29.94 in 10.0 mi NNW 9.2 mph - N/A   Clear
1:53 PM 62.1 °F - 43.0 °F 50% 29.94 in 10.0 mi NNW 12.7 mph - N/A   Clear
2:53 PM 64.0 °F - 43.0 °F 46% 29.93 in 10.0 mi NW 9.2 mph - N/A   Clear
3:53 PM 64.9 °F - 42.1 °F 43% 29.92 in 10.0 mi NW 9.2 mph - N/A   Clear
4:53 PM 66.0 °F - 42.1 °F 42% 29.94 in 10.0 mi NNW 10.4 mph 16.1 mph N/A   Clear
5:53 PM 64.0 °F - 42.1 °F 45% 29.96 in 10.0 mi NNW 9.2 mph - N/A   Clear
6:53 PM 59.0 °F - 43.0 °F 55% 30.00 in 10.0 mi NNW 9.2 mph - N/A   Clear
7:53 PM 55.0 °F - 43.0 °F 64% 30.04 in 10.0 mi NW 5.8 mph - N/A   Clear
8:53 PM 54.0 °F - 42.1 °F 64% 30.06 in 10.0 mi NNW 6.9 mph - N/A   Clear
9:53 PM 52.0 °F - 42.1 °F 69% 30.08 in 10.0 mi North 5.8 mph - N/A   Clear
10:53 PM 51.1 °F - 42.1 °F 71% 30.10 in 10.0 mi NNW 4.6 mph - N/A   Clear
11:53 PM 48.0 °F - 42.1 °F 80% 30.10 in 10.0 mi Calm Calm - N/A   Clear